DW6725 Weather Reports


Display with metric or nautical units.
time (UTC)temp
F
wind
direction
speed
MPH
gust
MPH
rain 1hr
in
rain 24hr
in
rain mn
in
humidity
%
barometer
mb
20260503031005 39 360 1.0 3.0 0.00 0.03 0.02 77 1014.1
20260503030003 39 360 0.0 4.0 0.00 0.03 0.02 78 1014.1
20260503025213 39 360 1.0 5.0 0.00 0.03 0.02 78 1014.3
20260503024006 38 360 1.0 4.0 0.00 0.03 0.02 79 1014.2
20260503023213 38 360 0.0 3.0 0.00 0.04 0.02 80 1014.3
20260503022003 38 360 0.0 2.0 0.00 0.04 0.02 79 1014.3
20260503021006 38 0 0.0 2.0 0.00 0.04 0.02 79 1014.4
20260503020006 38 360 0.0 2.0 0.00 0.07 0.02 79 1014.3
20260503015007 38 360 0.0 3.0 0.00 0.07 0.02 79 1014.3
20260503014003 38 0 0.0 1.0 0.00 0.07 0.02 79 1014.4
20260503013005 38 0 0.0 1.0 0.00 0.10 0.02 78 1014.4
20260503012003 38 360 0.0 3.0 0.00 0.10 0.02 78 1014.5
20260503011004 39 360 0.0 3.0 0.00 0.11 0.02 77 1014.5
20260503010214 39 360 0.0 3.0 0.00 0.11 0.02 75 1014.4
20260503005004 39 360 0.0 2.0 0.00 0.11 0.02 73 1014.3
20260503004004 40 360 0.0 3.0 0.00 0.11 0.02 72 1014.2
20260503003214 40 360 0.0 2.0 0.00 0.12 0.02 71 1014.2
20260503002214 40 0 0.0 1.0 0.00 0.12 0.02 70 1014.0
20260503001004 41 360 1.0 3.0 0.00 0.12 0.02 67 1014.1
20260503000003 42 360 0.0 3.0 0.00 0.15 0.02 66 1014.0
20260502235003 42 360 1.0 5.0 0.00 0.15 0.02 65 1013.7
20260502234003 43 360 1.0 5.0 0.00 0.15 0.02 63 1013.8
20260502233003 44 360 2.0 6.0 0.00 0.17 0.02 61 1013.8
20260502232005 44 360 3.0 9.0 0.00 0.17 0.02 60 1013.6
20260502231216 44 360 3.0 8.0 0.00 0.17 0.02 59 1013.7
20260502230004 44 360 4.0 10.0 0.00 0.18 0.02 57 1013.8
20260502225216 44 360 3.0 11.0 0.00 0.18 0.02 56 1013.8
20260502224004 45 360 3.0 10.0 0.00 0.18 0.02 57 1013.6
20260502223004 45 360 4.0 11.0 0.00 0.20 0.02 57 1013.6
20260502222215 45 360 4.0 11.0 0.00 0.20 0.02 56 1013.6
20260502221213 45 360 3.0 11.0 0.00 0.20 0.02 54 1013.6
20260502220005 46 360 4.0 13.0 0.00 0.20 0.02 54 1013.4
20260502215007 46 360 5.0 12.0 0.00 0.20 0.02 54 1013.4
20260502214006 46 360 5.0 12.0 0.00 0.20 0.02 55 1013.4
20260502213215 46 360 3.0 12.0 0.00 0.20 0.02 57 1013.5
20260502212005 45 360 5.0 11.0 0.00 0.20 0.02 55 1013.3
20260502211004 46 360 6.0 13.0 0.00 0.20 0.02 54 1013.4
20260502210004 46 360 4.0 10.0 0.00 0.20 0.02 52 1013.4
20260502205003 46 360 5.0 14.0 0.00 0.20 0.02 51 1013.4
20260502204213 47 360 5.0 14.0 0.00 0.20 0.02 50 1013.2
20260502203003 48 360 4.0 10.0 0.00 0.20 0.02 54 1013.2
20260502202004 48 360 4.0 10.0 0.00 0.20 0.02 54 1013.4
20260502201003 47 360 4.0 8.0 0.00 0.20 0.02 54 1013.3
20260502200003 48 360 4.0 10.0 0.00 0.20 0.02 57 1013.6
20260502195004 46 360 4.0 10.0 0.00 0.20 0.02 57 1013.5
20260502194003 46 360 4.0 10.0 0.00 0.20 0.02 55 1013.6
20260502193214 46 360 4.0 10.0 0.00 0.20 0.02 54 1013.6
20260502192003 48 360 4.0 10.0 0.00 0.20 0.02 56 1013.8
20260502191214 48 360 3.0 10.0 0.00 0.20 0.02 57 1013.8
20260502190005 46 360 4.0 10.0 0.00 0.20 0.02 57 1014.0
20260502185003 46 360 4.0 10.0 0.00 0.20 0.02 57 1014.1
20260502184214 47 360 5.0 10.0 0.00 0.20 0.02 55 1013.8
20260502182005 47 360 5.0 13.0 0.00 0.20 0.02 56 1013.8
20260502181003 48 360 4.0 9.0 0.00 0.20 0.02 56 1013.7
20260502164215 48 360 3.0 10.0 0.00 0.20 0.02 48 1013.6
20260502163004 48 360 4.0 11.0 0.00 0.20 0.02 49 1013.7
20260502162004 47 360 6.0 11.0 0.00 0.20 0.02 50 1013.8
20260502111003 39 360 3.0 7.0 0.00 0.20 0.02 100 1013.6